Location: G�ppingen
(48.7089°N, 9.6563°E)
Time: 08:24:48
(UTC+02:00)

M-CUBED/EXP-1 PRIME - Pass Details

Date: 28 March 2019
Orbit: 430 x 671 km, 101.7° (Epoch: 23 April)

Event Time Altitude Azimuth Distance (km) Brightness Sun altitude
Rises 20:08:53 0° 26° (NNE) 2,988 ? -14.1°
Reaches altitude 10° 20:11:14 10° 35° (NE) 2,091 ? -14.5°
Maximum altitude 20:15:30 37° 103° (ESE) 1,039 ? -15.1°
Drops below altitude 10° 20:19:46 10° 171° (S) 2,094 ? -15.8°
Enters shadow 20:21:23 - 177° (S) 2,710 ? -16.0°
